| time (UTC) | temp F | wind direction | speed knots | gust knots | rain 1hr in | rain 24hr in | rain mn in | humidity % | barometer mb |
| 20260504024445 | 59 | 177 | 1.7 | 4.3 | 0.00 | 0.00 | 0.00 | 76 | 1014.3 |
| 20260504023846 | 59 | 174 | 1.7 | 5.2 | 0.00 | 0.00 | 0.00 | 76 | 1014.3 |
| 20260504023545 | 59 | 174 | 1.7 | 5.2 | 0.00 | 0.00 | 0.00 | 76 | 1014.3 |
| 20260504021743 | 59 | 189 | 0.0 | 2.6 | 0.00 | 0.00 | 0.00 | 76 | 1015.3 |
| 20260504021444 | 59 | 189 | 1.7 | 3.5 | 0.00 | 0.00 | 0.00 | 76 | 1015.3 |
| 20260504021145 | 59 | 189 | 1.7 | 3.5 | 0.00 | 0.00 | 0.00 | 76 | 1015.3 |
| 20260504020545 | 59 | 213 | 0.0 | 2.6 | 0.00 | 0.00 | 0.00 | 76 | 1015.3 |
| 20260504020243 | 59 | 152 | 1.7 | 3.5 | 0.00 | 0.00 | 0.00 | 76 | 1015.3 |
| 20260504015045 | 59 | 201 | 0.0 | 3.5 | 0.00 | 0.00 | 0.00 | 76 | 1015.2 |
| 20260504014745 | 59 | 193 | 0.0 | 1.7 | 0.00 | 0.00 | 0.00 | 76 | 1015.2 |
| 20260504013245 | 60 | 159 | 0.0 | 2.6 | 0.00 | 0.00 | 0.00 | 76 | 1015.2 |
| 20260504012945 | 60 | 183 | 0.0 | 1.7 | 0.00 | 0.00 | 0.00 | 76 | 1015.2 |
| 20260504012646 | 60 | 183 | 0.0 | 1.7 | 0.00 | 0.00 | 0.00 | 76 | 1015.2 |
| 20260504012045 | 60 | 184 | 0.0 | 3.5 | 0.00 | 0.00 | 0.00 | 76 | 1015.2 |
| 20260504011445 | 60 | 161 | 0.0 | 0.0 | 0.00 | 0.00 | 0.00 | 76 | 1015.2 |
| 20260504005344 | 60 | 187 | 0.0 | 1.7 | 0.00 | 0.00 | 0.00 | 76 | 1015.2 |
| 20260504002643 | 62 | 136 | 0.0 | 2.6 | 0.00 | 0.00 | 0.00 | 74 | 1015.1 |
| 20260504002044 | 62 | 211 | 0.0 | 0.0 | 0.00 | 0.00 | 0.00 | 74 | 1015.1 |
| 20260504001444 | 62 | 231 | 0.0 | 2.6 | 0.00 | 0.00 | 0.00 | 74 | 1015.1 |
| 20260504000244 | 62 | 244 | 2.6 | 4.3 | 0.00 | 0.00 | 0.00 | 74 | 1015.1 |
| 20260503235943 | 62 | 244 | 0.0 | 3.5 | 0.00 | 0.00 | 0.00 | 74 | 1015.1 |
| 20260503235043 | 64 | 307 | 0.0 | 7.0 | 0.00 | 0.00 | 0.00 | 74 | 1015.1 |
| 20260503232943 | 64 | 175 | 4.3 | 12.2 | 0.00 | 0.00 | 0.00 | 74 | 1014.0 |
| 20260503232043 | 64 | 109 | 3.5 | 10.4 | 0.00 | 0.00 | 0.00 | 74 | 1014.0 |
| 20260503231743 | 64 | 165 | 3.5 | 6.1 | 0.00 | 0.00 | 0.00 | 74 | 1014.0 |
| 20260503231443 | 64 | 237 | 3.5 | 7.0 | 0.00 | 0.00 | 0.00 | 74 | 1015.0 |
| 20260503231144 | 64 | 237 | 3.5 | 7.0 | 0.00 | 0.00 | 0.00 | 74 | 1015.0 |
| 20260503230846 | 64 | 168 | 4.3 | 8.7 | 0.00 | 0.00 | 0.00 | 74 | 1015.0 |
| 20260503230543 | 64 | 168 | 4.3 | 8.7 | 0.00 | 0.00 | 0.00 | 74 | 1015.0 |
| 20260503230244 | 64 | 120 | 3.5 | 10.4 | 0.00 | 0.00 | 0.00 | 74 | 1015.0 |
| 20260503225943 | 64 | 236 | 1.7 | 7.8 | 0.00 | 0.00 | 0.00 | 71 | 1015.0 |
| 20260503225043 | 64 | 126 | 5.2 | 5.2 | 0.00 | 0.00 | 0.00 | 71 | 1015.0 |
| 20260503224743 | 66 | 193 | 6.1 | 9.6 | 0.00 | 0.00 | 0.00 | 71 | 1015.0 |
| 20260503224444 | 66 | 239 | 2.6 | 6.1 | 0.00 | 0.00 | 0.00 | 71 | 1015.0 |
| 20260503223545 | 66 | 264 | 2.6 | 7.0 | 0.00 | 0.00 | 0.00 | 71 | 1015.0 |
| 20260503222943 | 66 | 180 | 6.1 | 12.2 | 0.00 | 0.00 | 0.00 | 71 | 1015.0 |
| 20260503222043 | 66 | 216 | 2.6 | 7.0 | 0.00 | 0.00 | 0.00 | 71 | 1015.0 |
| 20260503221744 | 66 | 239 | 3.5 | 7.0 | 0.00 | 0.00 | 0.00 | 71 | 1015.0 |
| 20260503221443 | 66 | 168 | 3.5 | 7.8 | 0.00 | 0.00 | 0.00 | 71 | 1015.0 |
| 20260503220543 | 66 | 201 | 0.0 | 7.8 | 0.00 | 0.00 | 0.00 | 71 | 1015.0 |
| 20260503215943 | 66 | 157 | 1.7 | 6.1 | 0.00 | 0.00 | 0.00 | 71 | 1016.0 |
| 20260503214743 | 66 | 192 | 2.6 | 7.0 | 0.00 | 0.00 | 0.00 | 71 | 1016.0 |
| 20260503214443 | 66 | 175 | 4.3 | 7.0 | 0.00 | 0.00 | 0.00 | 71 | 1016.0 |
| 20260503213843 | 66 | 188 | 2.6 | 6.1 | 0.00 | 0.00 | 0.00 | 71 | 1016.0 |
| 20260503213543 | 66 | 188 | 2.6 | 6.1 | 0.00 | 0.00 | 0.00 | 71 | 1016.0 |
| 20260503212943 | 66 | 150 | 3.5 | 12.2 | 0.00 | 0.00 | 0.00 | 71 | 1016.0 |
| 20260503212343 | 66 | 152 | 3.5 | 6.1 | 0.00 | 0.00 | 0.00 | 71 | 1016.0 |
| 20260503212044 | 66 | 152 | 3.5 | 6.1 | 0.00 | 0.00 | 0.00 | 71 | 1016.0 |
| 20260503211443 | 66 | 305 | 6.1 | 7.0 | 0.00 | 0.00 | 0.00 | 71 | 1017.0 |
| 20260503210845 | 66 | 232 | 0.0 | 7.8 | 0.00 | 0.00 | 0.00 | 71 | 1017.0 |
| 20260503210543 | 66 | 232 | 0.0 | 7.8 | 0.00 | 0.00 | 0.00 | 71 | 1017.0 |
| 20260503210245 | 66 | 311 | 4.3 | 7.0 | 0.00 | 0.00 | 0.00 | 71 | 1017.0 |
| 20260503205943 | 66 | 240 | 5.2 | 8.7 | 0.00 | 0.00 | 0.00 | 71 | 1017.0 |
| 20260503205345 | 66 | 326 | 5.2 | 12.2 | 0.00 | 0.00 | 0.00 | 71 | 1017.0 |
| 20260503205043 | 66 | 326 | 5.2 | 12.2 | 0.00 | 0.00 | 0.00 | 71 | 1017.0 |
| 20260503204745 | 66 | 274 | 4.3 | 13.0 | 0.00 | 0.00 | 0.00 | 71 | 1017.0 |
| 20260503203843 | 66 | 145 | 2.6 | 9.6 | 0.00 | 0.00 | 0.00 | 71 | 1017.0 |
| 20260503203543 | 66 | 145 | 2.6 | 9.6 | 0.00 | 0.00 | 0.00 | 71 | 1017.0 |
| 20260503203243 | 66 | 213 | 4.3 | 11.3 | 0.00 | 0.00 | 0.00 | 71 | 1017.0 |
| 20260503202345 | 66 | 170 | 6.1 | 12.2 | 0.00 | 0.00 | 0.00 | 71 | 1017.0 |
| 20260503202043 | 66 | 170 | 6.1 | 12.2 | 0.00 | 0.00 | 0.00 | 71 | 1017.0 |
| 20260503201743 | 66 | 185 | 2.6 | 13.0 | 0.00 | 0.00 | 0.00 | 71 | 1017.0 |
| 20260503201443 | 64 | 222 | 3.5 | 7.0 | 0.00 | 0.00 | 0.00 | 71 | 1018.1 |
| 20260503200844 | 66 | 160 | 6.1 | 13.9 | 0.00 | 0.00 | 0.00 | 71 | 1018.0 |
| 20260503200543 | 66 | 160 | 6.1 | 13.9 | 0.00 | 0.00 | 0.00 | 71 | 1018.0 |
| 20260503200245 | 66 | 192 | 4.3 | 7.0 | 0.00 | 0.00 | 0.00 | 71 | 1018.0 |
| 20260503195343 | 66 | 183 | 5.2 | 8.7 | 0.00 | 0.00 | 0.00 | 71 | 1018.0 |
| 20260503195043 | 66 | 183 | 5.2 | 8.7 | 0.00 | 0.00 | 0.00 | 71 | 1018.0 |
| 20260503194743 | 66 | 204 | 4.3 | 7.0 | 0.00 | 0.00 | 0.00 | 71 | 1018.0 |
| 20260503193543 | 64 | 150 | 4.3 | 10.4 | 0.00 | 0.00 | 0.00 | 71 | 1018.0 |
| 20260503193245 | 64 | 254 | 4.3 | 7.0 | 0.00 | 0.00 | 0.00 | 71 | 1018.0 |
| 20260503192943 | 64 | 219 | 3.5 | 8.7 | 0.00 | 0.00 | 0.00 | 71 | 1018.1 |
| 20260503192343 | 64 | 172 | 2.6 | 8.7 | 0.00 | 0.00 | 0.00 | 74 | 1018.1 |
| 20260503192044 | 64 | 172 | 2.6 | 8.7 | 0.00 | 0.00 | 0.00 | 74 | 1018.1 |
| 20260503191743 | 64 | 165 | 0.0 | 10.4 | 0.00 | 0.00 | 0.00 | 71 | 1018.1 |
| 20260503190843 | 64 | 244 | 6.1 | 8.7 | 0.00 | 0.00 | 0.00 | 71 | 1019.1 |
| 20260503190545 | 64 | 244 | 6.1 | 8.7 | 0.00 | 0.00 | 0.00 | 71 | 1019.1 |
| 20260503190243 | 64 | 247 | 2.6 | 7.0 | 0.00 | 0.00 | 0.00 | 71 | 1019.1 |
| 20260503185043 | 64 | 222 | 4.3 | 7.0 | 0.00 | 0.00 | 0.00 | 71 | 1019.1 |
| 20260503184743 | 66 | 225 | 3.5 | 8.7 | 0.00 | 0.00 | 0.00 | 71 | 1019.0 |
| 20260503184143 | 66 | 173 | 0.0 | 6.1 | 0.00 | 0.00 | 0.00 | 71 | 1019.0 |
| 20260503183846 | 64 | 139 | 1.7 | 7.0 | 0.00 | 0.00 | 0.00 | 71 | 1019.1 |
| 20260503183544 | 64 | 139 | 1.7 | 7.0 | 0.00 | 0.00 | 0.00 | 71 | 1019.1 |
| 20260503183245 | 64 | 239 | 6.1 | 12.2 | 0.00 | 0.00 | 0.00 | 71 | 1019.1 |
| 20260503182945 | 64 | 268 | 4.3 | 9.6 | 0.00 | 0.00 | 0.00 | 74 | 1020.1 |
| 20260503182643 | 64 | 268 | 4.3 | 9.6 | 0.00 | 0.00 | 0.00 | 74 | 1020.1 |
| 20260503182345 | 64 | 163 | 3.5 | 6.1 | 0.00 | 0.00 | 0.00 | 74 | 1020.2 |
| 20260503181443 | 64 | 151 | 6.1 | 11.3 | 0.00 | 0.00 | 0.00 | 74 | 1020.2 |
| 20260503180543 | 62 | 147 | 3.5 | 7.0 | 0.00 | 0.00 | 0.00 | 74 | 1020.2 |
| 20260503180243 | 62 | 243 | 4.3 | 8.7 | 0.00 | 0.00 | 0.00 | 74 | 1020.2 |
| 20260503175943 | 62 | 156 | 4.3 | 7.0 | 0.00 | 0.00 | 0.00 | 74 | 1020.2 |
| 20260503175345 | 62 | 213 | 4.3 | 8.7 | 0.00 | 0.00 | 0.00 | 74 | 1020.2 |
| 20260503175043 | 62 | 213 | 4.3 | 8.7 | 0.00 | 0.00 | 0.00 | 74 | 1020.2 |
| 20260503173843 | 62 | 193 | 4.3 | 8.7 | 0.00 | 0.00 | 0.00 | 74 | 1020.2 |
| 20260503173543 | 62 | 193 | 4.3 | 8.7 | 0.00 | 0.00 | 0.00 | 74 | 1020.2 |
| 20260503173245 | 62 | 181 | 4.3 | 8.7 | 0.00 | 0.00 | 0.00 | 74 | 1020.2 |
| 20260503172945 | 62 | 188 | 5.2 | 8.7 | 0.00 | 0.00 | 0.00 | 74 | 1021.2 |
| 20260503172644 | 62 | 188 | 5.2 | 8.7 | 0.00 | 0.00 | 0.00 | 74 | 1021.2 |
| 20260503172345 | 62 | 211 | 0.0 | 6.1 | 0.00 | 0.00 | 0.00 | 74 | 1021.2 |
| 20260503172044 | 62 | 211 | 0.0 | 6.1 | 0.00 | 0.00 | 0.00 | 74 | 1021.2 |
| 20260503171743 | 62 | 132 | 1.7 | 8.7 | 0.00 | 0.00 | 0.00 | 74 | 1021.2 |
| 20260503171443 | 62 | 234 | 0.0 | 7.0 | 0.00 | 0.00 | 0.00 | 74 | 1021.3 |
| 20260503170844 | 62 | 219 | 4.3 | 6.1 | 0.00 | 0.00 | 0.00 | 74 | 1021.3 |
| 20260503170543 | 62 | 219 | 4.3 | 6.1 | 0.00 | 0.00 | 0.00 | 74 | 1021.3 |
| 20260503170245 | 62 | 181 | 4.3 | 7.0 | 0.00 | 0.00 | 0.00 | 74 | 1021.3 |
| 20260503150543 | 59 | 167 | 4.3 | 7.8 | 0.00 | 0.00 | 0.00 | 76 | 1022.5 |
| 20260503150243 | 59 | 160 | 4.3 | 7.0 | 0.00 | 0.00 | 0.00 | 76 | 1022.5 |
| 20260503140243 | 53 | 223 | 2.6 | 5.2 | 0.00 | 0.00 | 0.00 | 78 | 1022.7 |
| 20260503130843 | 48 | 184 | 3.5 | 4.3 | 0.00 | 0.00 | 0.00 | 80 | 1023.0 |
| 20260503130543 | 48 | 184 | 3.5 | 4.3 | 0.00 | 0.00 | 0.00 | 80 | 1023.0 |
| 20260503110543 | 33 | 2 | 0.0 | 0.0 | 0.00 | 0.00 | 0.00 | 99 | 1023.8 |
| 20260503110243 | 33 | 2 | 0.0 | 0.0 | 0.00 | 0.00 | 0.00 | 99 | 1023.8 |
| 20260503100243 | 33 | 2 | 0.0 | 0.0 | 0.00 | 0.00 | 0.00 | 99 | 1022.7 |
| 20260503090243 | 33 | 2 | 0.0 | 0.0 | 0.00 | 0.00 | 0.00 | 99 | 1022.7 |
| 20260503081443 | 35 | 2 | 0.0 | 0.0 | 0.00 | 0.00 | 0.00 | 99 | 1022.7 |
| 20260503081147 | 35 | 2 | 0.0 | 0.0 | 0.00 | 0.00 | 0.00 | 99 | 1022.7 |
| 20260503080843 | 35 | 2 | 0.0 | 0.0 | 0.00 | 0.00 | 0.00 | 99 | 1022.6 |
| 20260503080545 | 35 | 2 | 0.0 | 0.0 | 0.00 | 0.00 | 0.00 | 99 | 1022.6 |
| 20260503080243 | 35 | 2 | 0.0 | 0.0 | 0.00 | 0.00 | 0.00 | 99 | 1022.6 |
| 20260503072943 | 35 | 2 | 0.0 | 0.0 | 0.00 | 0.00 | 0.00 | 99 | 1022.6 |
| 20260503072343 | 35 | 2 | 0.0 | 0.0 | 0.00 | 0.00 | 0.00 | 99 | 1022.6 |
| 20260503072044 | 35 | 2 | 0.0 | 0.0 | 0.00 | 0.00 | 0.00 | 99 | 1022.6 |
| 20260503071743 | 35 | 2 | 0.0 | 0.0 | 0.00 | 0.00 | 0.00 | 99 | 1022.6 |
| 20260503071443 | 35 | 2 | 0.0 | 0.0 | 0.00 | 0.00 | 0.00 | 99 | 1022.6 |
| 20260503070843 | 35 | 2 | 0.0 | 0.0 | 0.00 | 0.00 | 0.00 | 99 | 1022.6 |
| 20260503070543 | 35 | 2 | 0.0 | 0.0 | 0.00 | 0.00 | 0.00 | 99 | 1022.6 |
| 20260503070243 | 35 | 2 | 0.0 | 0.0 | 0.00 | 0.00 | 0.00 | 99 | 1022.6 |
| 20260503060243 | 35 | 2 | 0.0 | 0.0 | 0.00 | 0.00 | 0.00 | 97 | 1023.7 |
| 20260503055043 | 35 | 2 | 0.0 | 0.0 | 0.00 | 0.00 | 0.00 | 95 | 1022.6 |
| 20260503054743 | 35 | 2 | 0.0 | 0.0 | 0.00 | 0.00 | 0.00 | 95 | 1022.6 |
| 20260503054443 | 35 | 2 | 0.0 | 0.0 | 0.00 | 0.00 | 0.00 | 95 | 1023.6 |
| 20260503053843 | 35 | 2 | 0.0 | 0.0 | 0.00 | 0.00 | 0.00 | 95 | 1023.6 |
| 20260503053543 | 35 | 2 | 0.0 | 0.0 | 0.00 | 0.00 | 0.00 | 95 | 1023.6 |
| 20260503053243 | 35 | 1 | 0.0 | 0.0 | 0.00 | 0.00 | 0.00 | 95 | 1023.6 |
| 20260503052343 | 35 | 1 | 0.0 | 0.0 | 0.00 | 0.00 | 0.00 | 93 | 1023.6 |
| 20260503051743 | 35 | 1 | 0.0 | 0.0 | 0.00 | 0.00 | 0.00 | 93 | 1023.6 |
| 20260503050843 | 37 | 1 | 0.0 | 0.0 | 0.00 | 0.00 | 0.00 | 93 | 1023.6 |
| 20260503050543 | 37 | 1 | 0.0 | 0.0 | 0.00 | 0.00 | 0.00 | 93 | 1023.6 |
| 20260503050243 | 37 | 2 | 0.0 | 0.0 | 0.00 | 0.00 | 0.00 | 93 | 1023.6 |
| 20260503045943 | 37 | 1 | 0.0 | 0.0 | 0.00 | 0.00 | 0.00 | 93 | 1023.6 |
| 20260503045343 | 37 | 1 | 0.0 | 0.0 | 0.00 | 0.00 | 0.00 | 93 | 1023.6 |
| 20260503045043 | 37 | 1 | 0.0 | 0.0 | 0.00 | 0.00 | 0.00 | 93 | 1023.6 |
| 20260503044743 | 37 | 1 | 0.0 | 0.0 | 0.00 | 0.00 | 0.00 | 93 | 1023.6 |
| 20260503043843 | 37 | 1 | 0.0 | 0.0 | 0.00 | 0.00 | 0.00 | 91 | 1023.6 |
| 20260503043243 | 37 | 1 | 0.0 | 0.0 | 0.00 | 0.00 | 0.00 | 91 | 1023.6 |
| 20260503042943 | 37 | 2 | 0.0 | 0.0 | 0.00 | 0.00 | 0.00 | 91 | 1022.6 |
| 20260503042343 | 37 | 1 | 0.0 | 0.0 | 0.00 | 0.00 | 0.00 | 91 | 1022.6 |
| 20260503041743 | 37 | 1 | 0.0 | 0.0 | 0.00 | 0.00 | 0.00 | 88 | 1022.5 |
| 20260503040843 | 37 | 2 | 0.0 | 0.0 | 0.00 | 0.00 | 0.00 | 88 | 1022.5 |
| 20260503040543 | 37 | 2 | 0.0 | 0.0 | 0.00 | 0.00 | 0.00 | 88 | 1022.5 |
| 20260503040243 | 37 | 1 | 0.0 | 0.0 | 0.00 | 0.00 | 0.00 | 88 | 1022.5 |
| 20260503035043 | 37 | 1 | 0.0 | 0.0 | 0.00 | 0.00 | 0.00 | 86 | 1022.5 |
| 20260503034743 | 37 | 1 | 0.0 | 0.0 | 0.00 | 0.00 | 0.00 | 86 | 1022.5 |
| 20260503034443 | 39 | 1 | 0.0 | 0.0 | 0.00 | 0.00 | 0.00 | 86 | 1022.5 |
| 20260503033843 | 39 | 2 | 0.0 | 0.0 | 0.00 | 0.00 | 0.00 | 86 | 1022.5 |
| 20260503033243 | 39 | 2 | 0.0 | 0.0 | 0.00 | 0.00 | 0.00 | 86 | 1022.5 |
| 20260503032943 | 39 | 2 | 0.0 | 0.0 | 0.00 | 0.00 | 0.00 | 86 | 1022.5 |
| 20260503032343 | 39 | 2 | 0.0 | 0.0 | 0.00 | 0.00 | 0.00 | 86 | 1022.4 |
| 20260503031743 | 39 | 2 | 0.0 | 0.0 | 0.00 | 0.00 | 0.00 | 84 | 1022.4 |
| 20260503031443 | 39 | 2 | 0.0 | 0.0 | 0.00 | 0.00 | 0.00 | 84 | 1023.5 |
| 20260503030543 | 39 | 2 | 0.0 | 0.0 | 0.00 | 0.00 | 0.00 | 84 | 1023.5 |
| 20260503030243 | 39 | 2 | 0.0 | 0.0 | 0.00 | 0.00 | 0.00 | 84 | 1023.4 |
| 20260503025943 | 41 | 2 | 0.0 | 0.0 | 0.00 | 0.00 | 0.00 | 84 | 1022.4 |
| 20260503025343 | 41 | 2 | 0.0 | 0.0 | 0.00 | 0.00 | 0.00 | 84 | 1022.4 |
| 20260503025043 | 41 | 2 | 0.0 | 0.0 | 0.00 | 0.00 | 0.00 | 84 | 1022.4 |